TimeMST,TemperatureF,Dew PointF,Humidity,Sea Level PressureIn,VisibilityMPH,Wind Direction,Wind SpeedMPH,Gust SpeedMPH,PrecipitationIn,Events,Conditions,WindDirDegrees,DateUTC
12:52 AM,41.0,19.9,43,30.27,10.0,North,13.8,-,N/A,,Partly Cloudy,360,2013-02-02 07:52:00
1:52 AM,39.0,19.9,46,30.28,10.0,North,10.4,-,N/A,,Partly Cloudy,360,2013-02-02 08:52:00
2:52 AM,37.9,19.9,48,30.30,10.0,North,5.8,-,N/A,,Partly Cloudy,350,2013-02-02 09:52:00
3:52 AM,35.1,19.0,52,30.31,10.0,North,6.9,-,N/A,,Scattered Clouds,10,2013-02-02 10:52:00
4:52 AM,36.0,19.9,52,30.31,10.0,North,6.9,-,N/A,,Scattered Clouds,360,2013-02-02 11:52:00
5:52 AM,32.0,19.0,59,30.33,10.0,NNE,6.9,-,N/A,,Scattered Clouds,20,2013-02-02 12:52:00
6:52 AM,34.0,19.9,56,30.34,10.0,North,6.9,-,N/A,,Scattered Clouds,360,2013-02-02 13:52:00
7:52 AM,35.1,21.0,57,30.36,10.0,North,6.9,-,N/A,,Mostly Cloudy,360,2013-02-02 14:52:00
8:52 AM,37.9,21.0,51,30.37,10.0,NE,3.5,-,N/A,,Mostly Cloudy,40,2013-02-02 15:52:00
9:52 AM,41.0,21.0,45,30.38,10.0,NNE,6.9,-,N/A,,Mostly Cloudy,20,2013-02-02 16:52:00
10:52 AM,45.0,19.9,37,30.38,10.0,North,3.5,-,N/A,,Mostly Cloudy,10,2013-02-02 17:52:00
11:52 AM,48.0,21.0,34,30.36,10.0,West,5.8,-,N/A,,Mostly Cloudy,280,2013-02-02 18:52:00
12:52 PM,50.0,19.4,30,30.38,10.0,Variable,3.5,-,N/A,,Mostly Cloudy,0,2013-02-02 19:52:00
1:52 PM,53.1,19.0,26,30.30,10.0,WNW,5.8,-,N/A,,Mostly Cloudy,290,2013-02-02 20:52:00
2:52 PM,54.0,18.0,24,30.28,10.0,WNW,4.6,-,N/A,,Mostly Cloudy,290,2013-02-02 21:52:00
3:52 PM,55.9,17.1,22,30.27,10.0,Calm,Calm,-,N/A,,Mostly Cloudy,0,2013-02-02 22:52:00
4:52 PM,55.0,15.1,21,30.26,10.0,North,3.5,-,N/A,,Mostly Cloudy,10,2013-02-02 23:52:00
5:52 PM,52.0,15.1,23,30.29,10.0,Calm,Calm,-,N/A,,Mostly Cloudy,0,2013-02-03 00:52:00
6:52 PM,48.9,16.0,27,30.30,10.0,NNE,5.8,-,N/A,,Scattered Clouds,30,2013-02-03 01:52:00
7:52 PM,46.9,16.0,29,30.32,10.0,North,5.8,-,N/A,,Mostly Cloudy,350,2013-02-03 02:52:00
8:52 PM,46.0,17.1,31,30.31,10.0,North,5.8,-,N/A,,Mostly Cloudy,360,2013-02-03 03:52:00
9:52 PM,45.0,18.0,34,30.31,10.0,NNW,6.9,-,N/A,,Mostly Cloudy,340,2013-02-03 04:52:00
10:52 PM,41.0,18.0,40,30.31,10.0,WNW,5.8,-,N/A,,Mostly Cloudy,300,2013-02-03 05:52:00
11:52 PM,34.0,14.0,44,30.31,10.0,ENE,3.5,-,N/A,,Mostly Cloudy,70,2013-02-03 06:52:00